User: anonymous   Login
Location: The D'Auria's Ocala Star Observatory
(29.0276°N, 82.1742°W)
Time: 10:52:59
(UTC-05:00)
Language:

Okean 3 Rocket - Orbit

View from above orbital plane
View from above orbital plane
View from above satellite
View from above satellite

Ground track
Ground track

The orbit data is extracted from the following two-line orbital elements,

1 21398U 91039B   18018.11431073  .00000059  00000-0  46914-5 0  9996
2 21398  82.5214  26.1156 0021007 194.2401 229.3372 14.79692637435698
Epoch (UTC): 18 January 2018 02:44:36
Eccentricity: 0.0021007
inclination: 82.5214°
perigee height: 615 km
apogee height: 645 km
right ascension of ascending node: 26.1156°
argument of perigee: 194.2401°
revolutions per day: 14.79692637
mean anomaly at epoch: 229.3372°
orbit number at epoch: 43569

The dashed part of the orbit path shows where the satellite is in the earth's shadow,  

DLR